[Date Prev][Date Next][Thread Prev][Thread Next] - [Date Index][Thread Index][Author Index]

2 line ISS Keps 4-11 - updates yesterdays by 8 sec's



ISS
1 25544U 98067A   01101.13506944  .00054851  00000-0  65675-3 0  8595
2 25544  51.5709  66.6290 0012644 262.9129 276.9006 15.60318898136601

----
Via the sarex mailing list at AMSAT.ORG courtesy of AMSAT-NA.
To unsubscribe, send "unsubscribe sarex" to Majordomo@amsat.org



AMSAT Top AMSAT Home